Location: Newark
(37.3186°N, 13.6631°E)
Time: 04:40:38
(UTC+00:00)

ISS - Pass Details

Date: 24 November 2019
Orbit: 411 x 421 km, 51.6° (Epoch: 14 December)

Event Time Altitude Azimuth Distance (km) Brightness Sun altitude
Rises 17:22:52 0° 260° (W) 2,348 1.8 -18.2°
Reaches altitude 10° 17:25:14 10° 276° (W) 1,490 0.1 -18.7°
Maximum altitude 17:27:58 23° 331° (NNW) 945 -1.8 -19.2°
Enters shadow 17:28:51 20° 355° (N) 1,017 -1.9 -19.4°
